Porter County Municipal Airport
KVPZ : now visible

Airfield :











YOU CAN JOIN US ON...

 
LOGIN :

Register | Disclaimer

   EN    FR    IT 

 









Legend :    VFR   Marginal VFR   IFR   Intensive IFR   Very Intensive IFR
Visi :
Ceiling :
>= 8 km
>= 3000ft
5 to 8 km
1000 to 3000 ft
1500m to 5 km
500 to 1000 ft
800 to 1500m
200 to 500 ft
< 800m
< 200 ft
Symbols :   Thunderstorms  Fog  Heavy snow  Heavy precipitations  Wind > 20 kt






- Airport Elevation : 770 ft


KVPZ - Porter County Municipal

CURRENT METAR :
  • 100956Z AUTO 26014KT 10SM OVC017 M06/M09 A2994 RMK AO2 SLP145 T10561094

EXPIRED METARs :
  • 100856Z AUTO 26015KT 10SM OVC015 M05/M09 A2991 RMK AO2 SLP135 T10501089 53027
  • 100756Z AUTO 27016G22KT 10SM OVC017 M04/M08 A2989 RMK AO2 SLP127 T10391078

TAF N/A



MET'MAP, your aeronautical weather chart ! - Copyright ORBIFLY December 2007 - Disclaimer

ORBIFLY MET'MAP TEAM :

Programming & Development : Alexandra Zaïnal
Concept & original design : Baudouin d'Aumeries
Assistance for programming : Marc-Olivier Méhu
Technical & hardware support : Manuel Goepfert

Contact : metmap@orbifly.com




SOURCES & CREDITS :

   NOAA       Earth
Advisory